AO-07 1 07530U 74089B 14345.40456840 -.00000014 00000-0 18530-3 0 1405 2 07530 101.4961 321.5444 0011766 310.4470 218.1568 12.53609717833727 FO-29 1 24278U 96046B 14344.94795417 .00000042 00000-0 79039-4 0 5376 2 24278 098.5189 334.4299 0350384 198.8501 177.1813 13.53037950904573 SO-33 1 25509U 98061B 14344.11116355 .00000213 00000-0 27421-4 0 8988 2 25509 031.4334 243.4417 0349001 215.9251 258.2823 14.29769223842344 RS-22 1 27939U 03042A 14345.36133016 .00001320 00000-0 25112-3 0 1193 2 27939 097.8187 150.8912 0012354 265.5426 094.4381 14.65597909598672 HO-68 1 36122U 09072B 14345.35670940 -.00000060 00000-0 -43517-4 0 1997 2 36122 100.2252 031.6367 0007526 190.4164 169.6798 13.16321265239740 AO-73 1 39444U 13066AE 14345.24936279 .00001862 00000-0 24986-3 0 3295 2 39444 097.7561 049.7744 0061382 029.1338 331.3276 14.79216251 55623 EO-79 1 40025U 14033R 14345.43599452 .00003739 00000-0 43235-3 0 5156 2 40025 097.9679 240.3622 0014501 078.7197 281.5626 14.86092181 25905 UO-11 1 14781U 84021B 14344.21471435 .00000733 00000-0 98907-4 0 6851 2 14781 097.8297 040.7150 0007664 334.9379 025.1462 14.81978065654030 AO-16 1 20439U 90005D 14344.55996568 .00000195 00000-0 88015-4 0 1905 2 20439 098.5243 278.7053 0010685 004.3769 104.8464 14.32447232299731 LO-19 1 20442U 90005G 14344.43033777 .00000181 00000-0 82455-4 0 1244 2 20442 098.4954 278.7028 0011400 352.8529 007.2491 14.32644718299910 AO-27 1 22825U 93061C 14344.55566942 .00000157 00000-0 78278-4 0 8398 2 22825 098.6851 289.8791 0009325 136.9189 333.5633 14.29797796105988 IO-26 1 22826U 93061D 14344.56212708 .00000180 00000-0 86892-4 0 5965 2 22826 098.6794 290.0780 0009941 129.8998 230.3060 14.30106070106126 GO-32 1 25397U 98043D 14344.79600767 .00000093 00000-0 59568-4 0 5173 2 25397 098.4949 296.4134 0002178 130.0681 256.0267 14.23493765852992 NO-44 1 26931U 01043C 14344.90636500 .00000194 00000-0 10657-3 0 7729 2 26931 067.0527 302.7245 0007367 270.1777 089.8480 14.30212882688872 SO-50 1 27607U 02058C 14345.57677041 .00004042 00000-0 58667-3 0 5981 2 27607 064.5573 051.4454 0067862 326.1500 033.5767 14.74220624643627 CO-55 1 27844U 03031E 14344.93799765 .00000320 00000-0 16568-3 0 897 2 27844 098.6976 351.1647 0010727 123.0895 296.4449 14.21646645593693 CO-57 1 27848U 03031J 14345.26488608 .00000254 00000-0 13640-3 0 297 2 27848 098.7072 351.2947 0010569 128.4710 294.5914 14.21315917593655 AO-51 1 28375U 04025K 14344.79932811 .00000214 00000-0 76335-4 0 112 2 28375 098.2725 285.8850 0083226 177.8212 182.3357 14.41523216549348 CP3 1 31129U 07012N 14344.97710450 .00000871 00000-0 19888-3 0 9202 2 31129 097.9568 314.2551 0097754 179.4575 217.1877 14.55231702405746 CO-65 1 32785U 08021C 14345.38664282 .00001440 00000-0 17041-3 0 1371 2 32785 097.6763 030.6907 0012677 330.9691 151.1745 14.86031949358335 PRISM 1 33493U 09002B 14345.35636040 .00007733 00000-0 78207-3 0 5664 2 33493 098.2519 168.8057 0016608 223.7502 136.2372 14.91198906318560 SOHLA-1 1 33496U 09002E 14344.43943675 .00000569 00000-0 10083-3 0 5343 2 33496 098.1893 106.0497 0007011 052.8752 350.3883 14.71071075315428 TISAT-1 1 36799U 10035E 14345.23660187 .00002844 00000-0 32355-3 0 7710 2 36799 098.0172 078.6779 0014500 103.3016 309.2112 14.86967064239015 STUDSAT 1 36801U 10035G 14344.86215596 .00019982 00000-0 14951-2 0 9514 2 36801 098.0547 090.4028 0006491 063.6808 088.8412 15.02769435239598 ALMASAT-1 1 38078U 12006B 14345.42387664 .00038382 32933-5 74511-3 0 2300 2 38078 069.4644 348.3533 0540255 155.2333 207.5833 14.63226234147422 XATCOBEO 1 38082U 12006F 14243.34478676 .13583328 43697-5 37939-3 0 5637 2 38082 069.3815 097.0364 0033293 225.1799 135.4582 16.41261006136239 CUBEBUG-1 1 39153U 13018D 14345.19268793 .00001846 00000-0 25989-3 0 7102 2 39153 098.0311 065.0901 0018684 138.1359 222.1284 14.78420411 87696 ESTCUBE-1 1 39161U 13021C 14345.37923552 .00002295 00000-0 38584-3 0 7436 2 39161 098.0876 064.9133 0009793 186.8739 173.2329 14.70545416 85632 DUCHIFAT-1 1 40021U 14033M 14345.27672779 .00004928 00000-0 56198-3 0 5162 2 40021 097.9694 240.2964 0015299 079.6280 280.6656 14.86509092 25877 NANOSATCBR1 1 40024U 14033Q 14345.22520634 .00004531 00000-0 52011-3 0 5083 2 40024 097.9669 240.1704 0014484 079.7856 280.4990 14.86286488 25867 DTUSAT-2 1 40030U 14033W 14345.27779623 .00003521 00000-0 41146-3 0 5006 2 40030 097.9671 240.0817 0013970 073.4415 286.8317 14.85704174 25872 ANTELSAT 1 40034U 14033AA 14345.27038224 .00003177 00000-0 50086-3 0 5162 2 40034 097.9625 236.3012 0061577 002.1799 357.9626 14.71871341 25644 MET-2/21 1 22782U 93055A 14344.59197647 .00000019 00000-0 37917-5 0 2453 2 22782 082.5490 033.3331 0023665 129.5105 024.2079 13.83753910 74513 OKEAN-4 1 23317U 94066A 14344.58744213 .00001318 00000-0 14749-3 0 7305 2 23317 082.5391 262.4874 0018905 231.9311 113.8252 14.86075721 89293 NOAA-14 1 23455U 94089A 14345.55304123 -.00000037 00000-0 36017-5 0 151 2 23455 098.7677 065.7512 0008597 251.0636 223.6074 14.14008564 29012 NOAA-15 1 25338U 98030A 14345.56887139 .00000233 00000-0 11747-3 0 4519 2 25338 098.7640 339.1915 0010422 359.3496 107.2359 14.25524476862111 RESURS 1 25394U 98043A 14344.11611645 .00000054 00000-0 41204-4 0 8272 2 25394 098.4394 301.2991 0002541 104.0318 311.6651 14.24423590853368 FENGYUN1 1 25730U 99025A 14344.54744002 .00002572 00000-0 14097-2 0 3155 2 25730 098.9291 304.7310 0021815 334.1528 089.5059 14.12622512802415 OKEAN-0 1 25860U 99039A 14344.09488767 .00000776 00000-0 12126-3 0 4378 2 25860 098.0687 307.1850 0001348 123.4525 296.4729 14.75636571828094 NOAA-16 1 26536U 00055A 14345.52801020 -.00000016 00000-0 15738-4 0 9511 2 26536 098.9688 046.4599 0010990 048.2706 311.9404 14.13061493733158 NOAA-17 1 27453U 02032A 14345.51481861 .00000136 00000-0 75886-4 0 8413 2 27453 098.3250 335.9835 0011876 019.8888 340.2753 14.24828464647937 NOAA-18 1 28654U 05018A 14345.54500231 .00000216 00000-0 14287-3 0 3646 2 28654 099.1683 328.7870 0015162 125.0150 022.2839 14.12112901492594 NOAA-19 1 33591U 09005A 14345.53761447 .00000225 00000-0 14761-3 0 4940 2 33591 098.9669 290.2196 0013663 343.3505 145.1081 14.11827499301012 HUBBLE 1 20580U 90037B 14345.22963183 .00002962 00000-0 18462-3 0 1754 2 20580 028.4716 312.6592 0003065 022.7681 097.9114 15.06378507151430 ISS 1 25544U 98067A 14345.57318292 .00016496 00000-0 26795-3 0 5459 2 25544 051.6455 300.0000 0007378 121.0035 239.2202 15.52040422918854 CO-58 1 28895U 05043F 14344.09697358 .00000892 00000-0 18523-3 0 9415 2 28895 097.8223 176.7689 0017571 171.1364 189.0152 14.62298462485954 FALCON 1 30776U 07006E 14344.48183227 .00010889 00000-0 50005-3 0 234 2 30776 035.4286 100.1038 0002268 062.0979 342.0516 15.19678457427521 MAST 1 31126U 07012K 14344.48868819 .00000605 00000-0 14085-3 0 2233 2 31126 097.9367 316.4229 0092178 163.6657 317.5344 14.55644706406036 CAPE1 1 31130U 07012P 14343.96128953 .00000734 00000-0 17021-3 0 2289 2 31130 097.9583 312.8108 0098256 184.2229 175.8151 14.54944916405365 COMPASS 1 32787U 08021E 14345.17647446 .00002764 00000-0 29775-3 0 1224 2 32787 097.6787 033.5321 0012516 320.6280 039.4026 14.89195656358516 AAUSAT2 1 32788U 08021F 14345.09013776 .00004435 00000-0 46436-3 0 1094 2 32788 097.6802 034.6646 0011803 319.0299 041.0031 14.90048868358572 DO-64 1 32789U 08021G 14345.24195384 .00008078 00000-0 72012-3 0 1544 2 32789 097.6992 043.1690 0010238 296.3246 104.2652 14.96221617358940 CO-66 1 32791U 08021J 14345.10245497 .00002002 00000-0 22594-3 0 1050 2 32791 097.6782 031.8287 0013274 325.9897 034.0468 14.87586273358341 RS-30 1 32953U 08025A 14345.30093284 .00000010 00000-0 -13620-7 0 5451 2 32953 082.5023 091.0871 0019578 130.5945 229.6842 12.43053515297265 METEOR-M 1 35865U 09049A 14345.26782080 .00000223 00000-0 12020-3 0 1558 2 35865 098.5274 027.1005 0001968 318.8786 041.2234 14.21964542271503 RS-38 1 35869U 09049E 14345.26717701 .00000154 00000-0 88276-4 0 593 2 35869 098.5202 026.8204 0003915 310.2187 049.8646 14.22252910271545 JUGNU 1 37839U 11058B 14344.94427734 .00000434 00000-0 89992-4 0 7508 2 37839 019.9608 263.6147 0019046 131.8055 301.2429 14.12387927163574 SRMSAT 1 37841U 11058D 14344.89767447 .00000415 00000-0 83959-4 0 7543 2 37841 019.9720 286.7760 0012057 064.5651 333.2371 14.10414636163339 RAX-2 1 37853U 11061D 14344.35051506 .00010045 00000-0 65495-3 0 9842 2 37853 101.7040 098.2845 0207804 266.2165 167.2708 14.92218779168901 AUBIESAT 1 37854U 11061E 14345.30127091 .00011055 00000-0 69335-3 0 9829 2 37854 101.7088 102.2313 0204827 259.6090 153.2425 14.93886515169121 HRBE 1 37855U 11061F 14345.30339670 .00009924 00000-0 63248-3 0 31 2 37855 101.7077 101.2936 0207745 261.5050 096.2563 14.93005174169077 RS-39 1 38051U 11062C 14288.65876392 .70201582 12497-4 27925-2 0 413 2 38051 051.5964 324.1908 0006422 269.6897 186.8903 16.43533377153081 E-STAR 1 38079U 12006C 14345.73705891 .00329964 00000-0 14875-2 0 1007 2 38079 069.4256 229.7683 0173509 091.4983 270.6752 15.64677100150582 GOLIAT 1 38085U 12006J 14345.39508220 .00225593 16310-4 14419-2 0 6189 2 38085 069.4329 243.7444 0221521 098.4337 018.5731 15.49508929150197 HORYU-2 1 38340U 12025D 14345.13214886 .00002309 00000-0 36442-3 0 423 2 38340 098.2891 305.6246 0011668 341.4287 018.6493 14.73348350137835 RS-40 1 38735U 12041C 14345.26375491 .00000040 00000-0 21992-3 0 8492 2 38735 082.4733 177.1400 0016519 229.3265 130.6380 12.42564968107574 PROITERES 1 38756U 12047B 14345.30073252 .00001636 00000-0 24876-3 0 4870 2 38756 098.2248 076.4924 0012402 173.6550 186.4816 14.75367129121296 BEESAT-3 1 39134U 13015E 14344.91130049 .00009958 00000-0 64103-3 0 7876 2 39134 064.8753 298.2312 0035743 279.3286 080.3795 15.08280716 90268 BEESAT-2 1 39136U 13015G 14344.99772443 .00008240 00000-0 54736-3 0 7678 2 39136 064.8757 299.0964 0036255 279.0690 080.6329 15.07259830 90269 LO-75 1 39382U 13064C 14295.69194059 .07301741 00000-0 36367-2 0 4875 2 39382 040.4713 030.2705 0002289 341.7175 018.4586 16.19795749470823 ZACUBE-1 1 39417U 13066B 14344.41625503 .00001665 00000-0 22599-3 0 4850 2 39417 097.7559 048.8644 0061920 032.2345 328.2627 14.78857810 56739 TRITON-1 1 39427U 13066M 14344.46438870 .00001238 00000-0 21204-3 0 3379 2 39427 097.7430 041.1164 0117949 049.8083 311.3375 14.65985805 56215 DELFIN3XT 1 39428U 13066N 14345.10049120 .00001921 00000-0 33191-3 0 3410 2 39428 097.7425 040.4296 0127430 051.2542 309.9969 14.64279237 56217 GOMX-1 1 39430U 13066Q 14345.41452690 .00002043 00000-0 38964-3 0 637 2 39430 097.7376 036.8853 0156264 061.1057 300.5715 14.57414648 56025 MO-76 1 39436U 13066W 14344.16820282 .00017959 00000-0 15759-2 0 4306 2 39436 097.7638 055.5058 0023361 026.2785 333.9616 14.96459313 57121 LO-74 1 39440U 13066AA 14345.25480387 .00001350 00000-0 20283-3 0 3340 2 39440 097.7513 046.5785 0083824 035.6359 325.0407 14.73749248 56657 PUCPSAT-1 1 39442U 13066AC 14344.45947007 .00003376 00000-0 37683-3 0 3331 2 39442 097.7622 053.7543 0034363 027.9792 332.3262 14.87234310 55801 SHINAISAT 1 39572U 14009A 14328.13084988 .28848087 76253-5 66603-3 0 4474 2 39572 064.9728 197.0096 0013534 259.7861 100.1802 16.45181032 42403 TEIKYOSAT 1 39576U 14009E 14297.85867254 .09345816 76764-5 25176-3 0 4374 2 39576 064.9818 300.5833 0008491 317.3597 044.3862 16.45008906 37698 CO-77 1 39577U 14009F 14244.78324653 .10543803 76292-5 32273-3 0 3795 2 39577 064.9920 123.7668 0014904 269.7208 091.1897 16.43552757 29380 SPROUT 1 39770U 14029E 14345.40618120 .00001717 00000-0 21673-3 0 2194 2 39770 097.8747 079.9011 0011153 094.1796 266.0674 14.83162560 29798 POPSAT-HIP1 1 40028U 14033U 14345.32044476 .00003818 00000-0 44298-3 0 5370 2 40028 097.9707 240.2815 0016053 076.2202 284.0756 14.85925378 25877 EO-80 1 40032U 14033Y 14345.28065571 .00003435 00000-0 40199-3 0 5202 2 40032 097.9670 240.0932 0013734 073.0212 287.2506 14.85668765 25870 VELOX-1 1 40057U 14034E 14345.33781544 .00003811 00000-0 57649-3 0 5263 2 40057 098.2376 055.3307 0012715 118.0037 242.2432 14.74780395 24184 DAURIA DX 1 1 40071U 14037C 14345.33301341 .00001757 00000-0 24029-3 0 4975 2 40071 098.3836 043.8483 0009706 118.7686 241.4492 14.79888321 23002 UKUBE-1 1 40074U 14037F 14345.36318282 .00003626 00000-0 47362-3 0 4986 2 40074 098.3845 044.1505 0005819 125.2399 234.9353 14.81144949 23028 CHASQUI-1 1 40117U 98067ET 14345.35135934 .00246076 00000-0 15046-2 0 3507 2 40117 051.6399 293.7006 0010682 090.6384 044.7573 15.76008452 17884 HODOYOSHI-1 1 40299U 14070B 14345.39629811 .00006660 00000-0 33570-3 0 1128 2 40299 097.4741 064.3654 0014986 070.0264 357.8036 15.17389715 5311 CHUBUSAT-1 1 40300U 14070C 14345.37995497 .00007282 00000-0 38735-3 0 1135 2 40300 097.4723 064.2272 0024648 067.8848 002.3817 15.15289920 5300 QSAT-EOS 1 40301U 14070D 14345.71978652 .00012724 00000-0 71436-3 0 1219 2 40301 097.4686 064.4116 0036054 065.0692 094.5223 15.12901661 5358 TSUBAME 1 40302U 14070E 14345.34729678 .00009467 00000-0 56381-3 0 1123 2 40302 097.4660 063.9118 0046242 067.4716 293.1382 15.10501697 5288 /EX